Tracking 34085 objects as of 13-May-2026
HD Live streaming from Space Station
objects crossing your sky now

STARLINK-37069

Track STARLINK-37069 now!
10-day predictions
STARLINK-37069 is classified as:


NORAD ID: 68158
Int'l Code: 2026-049S
Perigee: 471.8 km
Apogee: 473.6 km
Inclination: 97.3 °
Period: 93.9 minutes
Semi major axis: 6843 km
RCS: Unknown
Launch date: March 13, 2026
Source: United States (US)
Launch site: AIR FORCE WESTERN TEST RANGE (AFWTR)
Your satellite tracking list
Your tracking list is empty




NASA's NSSDC Master Catalog

Two Line Element Set (TLE):
1 68158U 26049S   26132.50615014  .00009529  00000-0  29705-3 0  9996
2 68158  97.2843 154.2842 0001300 110.1505 249.9878 15.33450867  9420
Source of the keplerian elements: AFSPC